"startDT [UTC]","vpos","CH4 [ppm]","stdev(CH4) [ppm]","CO2 [ppm]","stdev(CO2) [ppm]","H2O [ppm]","stdev(H2O)","p_LGR [torr]","T_LGR [C]","mt1_LGR [us]","mt2_LGR [us]","T_ECpre [C]","T_EC1 [C]","T_EC2 [C]","p_inlet [hPa]","p_in [hPa]","p_out [hPa]","T_inlet [C]","RH_inlet [%]","dwpt_inlet [C]","T_vent [C]","RH_vent [%]","dwpt_vent [C]","flow_vent [l min-1]","flow_inlet [l min-1]","dwpt_sample [C]","T_room [C]"
2012-12-27 00:00:00,0.0,1.9164,0.0008,-1.00,0.00,-1.0,0.0,138.13,27.41,24.64,36.50,0.04,-272.74,-272.75,-39,556,-944,21.9,1.2,-34.6,22.0,1.3,-34.1,5.73,2.40,-31.1,26.9
2012-12-27 00:01:00,0.0,1.9163,0.0009,-1.00,0.00,-1.0,0.0,138.12,27.41,24.64,36.50,0.04,-272.74,-272.75,-40,556,-944,21.9,1.2,-34.6,22.0,1.3,-34.1,5.73,2.42,-31.1,26.9
2012-12-27 00:02:00,0.0,1.9166,0.0008,-1.00,0.00,-1.0,0.0,138.13,27.41,24.64,36.50,0.04,-272.75,-272.74,-40,556,-944,21.9,1.2,-34.6,22.0,1.3,-34.1,5.73,2.50,-31.1,27.0
2012-12-27 00:03:00,0.0,1.9168,0.0010,-1.00,0.00,-1.0,0.0,138.13,27.41,24.64,36.50,0.04,-272.74,-272.75,-39,556,-944,21.9,1.2,-34.6,22.0,1.3,-34.2,5.73,2.51,-31.1,26.9
2012-12-27 00:04:00,0.0,1.9161,0.0010,-1.00,0.00,-1.0,0.0,138.12,27.40,24.64,36.50,0.04,-272.74,-272.75,-39,557,-944,21.9,1.2,-34.6,22.0,1.3,-34.2,5.73,2.44,-31.1,26.9
2012-12-27 00:05:00,0.0,1.9164,0.0008,-1.00,0.00,-1.0,0.0,138.13,27.40,24.64,36.50,0.04,-272.75,-272.74,-40,556,-944,21.9,1.2,-34.6,22.0,1.3,-34.1,5.73,2.39,-31.1,26.9
2012-12-27 00:06:00,0.0,1.9168,0.0009,-1.00,0.00,-1.0,0.0,138.13,27.40,24.64,36.50,0.04,-272.75,-272.75,-40,556,-944,21.9,1.2,-34.6,22.0,1.3,-34.1,5.73,2.43,-31.1,26.9
2012-12-27 00:07:00,0.0,1.9165,0.0010,-1.00,0.00,-1.0,0.0,138.13,27.40,24.64,36.51,0.04,-272.75,-272.75,-39,556,-944,21.9,1.2,-34.6,22.0,1.3,-34.2,5.73,2.50,-31.1,26.9
2012-12-27 00:08:00,0.0,1.9170,0.0008,-1.00,0.00,-1.0,0.0,138.12,27.40,24.64,36.50,0.04,-272.74,-272.75,-39,556,-944,21.9,1.2,-34.6,22.0,1.3,-34.1,5.73,2.50,-31.1,26.9
2012-12-27 00:09:00,0.0,1.9169,0.0010,-1.00,0.00,-1.0,0.0,138.13,27.40,24.64,36.50,0.04,-272.74,-272.74,-40,556,-944,21.9,1.2,-34.6,22.0,1.3,-34.2,5.73,2.43,-31.1,26.9
2012-12-27 00:10:00,0.0,1.9170,0.0007,-1.00,0.00,-1.0,0.0,138.13,27.40,24.64,36.50,0.04,-272.75,-272.75,-39,556,-944,21.9,1.2,-34.6,22.0,1.3,-34.4,5.73,2.39,-31.1,26.9
2012-12-27 00:11:00,0.0,1.9170,0.0009,-1.00,0.00,-0.2,5.9,138.13,27.40,24.64,36.51,0.04,-272.75,-272.75,-39,556,-944,21.9,1.2,-34.6,22.0,1.3,-34.4,5.73,2.45,-31.1,26.9
2012-12-27 00:12:00,0.0,1.9175,0.0009,-1.00,0.00,-1.0,0.0,138.12,27.40,24.64,36.51,0.04,-272.74,-272.74,-40,556,-944,21.9,1.2,-34.7,21.9,1.3,-34.4,5.73,2.51,-31.2,26.9
2012-12-27 00:13:00,0.0,1.9173,0.0009,-1.00,0.00,-1.0,0.0,138.13,27.40,24.64,36.51,0.04,-272.74,-272.74,-40,556,-944,21.9,1.2,-34.9,21.9,1.3,-34.4,5.73,2.49,-31.1,26.9
2012-12-27 00:14:00,0.0,1.9171,0.0008,-1.00,0.00,-1.0,0.0,138.13,27.40,24.64,36.51,0.04,-272.74,-272.76,-39,556,-944,21.9,1.2,-34.8,21.9,1.2,-34.5,5.73,2.41,-31.1,27.0
2012-12-27 00:15:00,0.0,1.9169,0.0009,-1.00,0.00,-0.7,1.8,138.12,27.40,24.64,36.50,0.04,-272.74,-272.74,-39,556,-944,21.9,1.2,-34.9,21.9,1.2,-34.6,5.73,2.40,-31.1,26.9
2012-12-27 00:16:00,0.0,1.9166,0.0008,-1.00,0.00,-1.0,0.0,138.13,27.40,24.64,36.50,0.04,-272.75,-272.75,-40,556,-944,21.9,1.2,-35.0,21.9,1.2,-34.6,5.73,2.46,-31.1,26.9
2012-12-27 00:17:00,0.0,1.9162,0.0009,-1.00,0.00,-1.0,0.0,138.13,27.40,24.64,36.51,0.04,-272.74,-272.75,-40,556,-944,21.9,1.2,-35.1,21.9,1.2,-34.6,5.73,2.52,-31.1,27.0
2012-12-27 00:18:00,0.0,1.9160,0.0010,-1.00,0.00,-1.0,0.0,138.13,27.40,24.64,36.50,0.04,-272.74,-272.75,-39,556,-945,21.9,1.2,-35.1,21.9,1.2,-34.6,5.73,2.47,-31.2,26.9
2012-12-27 00:19:00,0.0,1.9159,0.0010,-1.00,0.00,-1.0,0.0,138.13,27.40,24.64,36.51,0.04,-272.75,-272.74,-40,556,-945,21.9,1.2,-35.0,21.9,1.2,-34.6,5.73,2.40,-31.1,27.0
2012-12-27 00:20:00,0.0,1.9161,0.0010,-1.00,0.00,-1.0,0.0,138.13,27.40,24.64,36.50,0.04,-272.74,-272.74,-40,556,-944,21.9,1.2,-34.8,22.0,1.2,-34.6,5.73,2.41,-31.2,27.0
2012-12-27 00:21:00,0.0,1.9160,0.0010,-1.00,0.00,-1.0,0.0,138.13,27.40,24.64,36.50,0.04,-272.75,-272.74,-40,556,-944,21.9,1.2,-34.8,22.0,1.3,-34.4,5.73,2.49,-31.2,27.0
2012-12-27 00:22:00,0.0,1.9159,0.0009,-1.00,0.00,-1.0,0.0,138.13,27.40,24.64,36.50,0.04,-272.74,-272.75,-39,556,-944,21.9,1.2,-34.8,22.0,1.3,-34.4,5.73,2.51,-31.2,26.9
2012-12-27 00:23:00,0.0,1.9161,0.0010,-1.00,0.00,-1.0,0.0,138.13,27.40,24.64,36.51,0.04,-272.74,-272.75,-40,556,-944,21.9,1.2,-34.8,21.9,1.3,-34.3,5.73,2.45,-31.2,26.9
2012-12-27 00:24:00,0.0,1.9160,0.0008,-1.00,0.00,-1.0,0.0,138.13,27.40,24.64,36.51,0.04,-272.75,-272.74,-40,556,-944,21.9,1.2,-34.9,21.9,1.3,-34.4,5.73,2.39,-31.2,26.9
2012-12-27 00:25:00,0.0,1.9163,0.0010,-1.00,0.00,-1.0,0.0,138.13,27.40,24.64,36.51,0.04,-272.74,-272.74,-39,556,-945,21.9,1.2,-34.8,21.9,1.2,-34.4,5.73,2.43,-31.2,26.9
2012-12-27 00:26:00,0.0,1.9164,0.0007,-1.00,0.00,-1.0,0.0,138.12,27.40,24.64,36.51,0.04,-272.74,-272.75,-39,556,-944,21.9,1.2,-34.7,22.0,1.3,-34.4,5.73,2.50,-31.2,26.9
2012-12-27 00:27:00,0.0,1.9164,0.0006,-1.00,0.00,-1.0,0.0,138.13,27.40,24.64,36.50,0.04,-272.74,-272.75,-40,556,-944,21.9,1.2,-34.6,21.9,1.2,-34.4,5.73,2.50,-31.2,26.9
2012-12-27 00:28:00,0.0,1.9167,0.0009,-1.00,0.00,-1.0,0.0,138.13,27.40,24.64,36.50,0.04,-272.74,-272.75,-40,556,-944,21.9,1.2,-34.6,21.9,1.3,-34.4,5.73,2.43,-31.2,26.9
2012-12-27 00:29:00,0.0,1.9162,0.0009,-1.00,0.00,-1.0,0.0,138.13,27.40,24.64,36.50,0.04,-272.74,-272.74,-39,556,-944,21.9,1.2,-34.7,21.9,1.3,-34.4,5.73,2.39,-31.2,26.9
2012-12-27 00:30:00,0.0,1.9163,0.0009,-1.00,0.00,-1.0,0.0,138.13,27.40,24.64,36.50,0.04,-272.74,-272.74,-39,556,-944,21.9,1.2,-34.7,21.9,1.2,-34.4,5.73,2.46,-31.2,26.9
2012-12-27 00:31:00,0.0,1.9162,0.0008,-1.00,0.00,-1.0,0.0,138.12,27.40,24.64,36.50,0.04,-272.74,-272.75,-40,556,-944,21.9,1.2,-34.6,21.9,1.3,-34.4,5.73,2.51,-31.2,26.9
2012-12-27 00:32:00,0.0,1.9163,0.0010,-1.00,0.00,-1.0,0.0,138.13,27.40,24.64,36.50,0.04,-272.74,-272.74,-40,556,-944,21.9,1.2,-34.6,21.9,1.3,-34.3,5.73,2.48,-31.2,26.9
2012-12-27 00:33:00,0.0,1.9168,0.0008,-1.00,0.00,-1.0,0.0,138.13,27.40,24.64,36.50,0.04,-272.74,-272.75,-39,556,-944,21.9,1.2,-34.7,21.9,1.3,-34.4,5.73,2.40,-31.2,26.9
2012-12-27 00:34:00,0.0,1.9165,0.0010,-1.00,0.00,-1.0,0.0,138.13,27.40,24.64,36.50,0.04,-272.75,-272.75,-39,556,-944,21.9,1.2,-34.6,21.9,1.2,-34.4,5.73,2.40,-31.2,26.9
2012-12-27 00:35:00,0.0,1.9170,0.0009,-1.00,0.00,-1.0,0.0,138.13,27.40,24.64,36.50,0.04,-272.75,-272.74,-40,556,-944,21.9,1.2,-34.6,21.9,1.3,-34.4,5.73,2.48,-31.2,26.9
2012-12-27 00:36:00,0.0,1.9166,0.0008,-1.00,0.00,-1.0,0.0,138.13,27.40,24.64,36.51,0.04,-272.74,-272.74,-40,556,-944,21.9,1.2,-34.7,21.9,1.3,-34.4,5.73,2.52,-31.2,26.9
2012-12-27 00:37:00,0.0,1.9166,0.0008,-1.00,0.00,-0.4,3.6,138.13,27.40,24.64,36.50,0.04,-272.74,-272.75,-39,556,-944,21.9,1.2,-34.6,21.9,1.3,-34.4,5.73,2.46,-31.2,26.9
2012-12-27 00:38:00,0.0,1.9164,0.0007,-1.00,0.00,-1.0,0.0,138.13,27.40,24.64,36.50,0.04,-272.74,-272.75,-40,556,-944,21.9,1.2,-34.6,21.9,1.3,-34.4,5.73,2.39,-31.2,26.9
2012-12-27 00:39:00,0.0,1.9169,0.0008,-1.00,0.00,-1.0,0.0,138.13,27.40,24.64,36.50,0.04,-272.74,-272.74,-40,556,-944,21.9,1.2,-34.6,21.9,1.3,-34.4,5.73,2.42,-31.2,26.9
2012-12-27 00:40:00,0.0,1.9170,0.0008,-1.00,0.00,-1.0,0.0,138.13,27.40,24.64,36.50,0.04,-272.74,-272.75,-39,556,-944,21.9,1.2,-34.6,21.9,1.3,-34.2,5.73,2.50,-31.3,26.9
2012-12-27 00:41:00,0.0,1.9165,0.0010,-1.00,0.00,-1.0,0.0,138.13,27.40,24.64,36.50,0.04,-272.75,-272.75,-39,556,-944,21.9,1.2,-34.6,21.9,1.3,-34.1,5.73,2.51,-31.3,26.9
2012-12-27 00:42:00,0.0,1.9158,0.0008,-1.00,0.00,-1.0,0.0,138.13,27.40,24.64,36.50,0.04,-272.74,-272.75,-40,556,-944,21.9,1.2,-34.6,21.9,1.3,-34.2,5.73,2.43,-31.2,26.9
2012-12-27 00:43:00,0.0,1.9161,0.0011,-1.00,0.00,-1.0,0.0,138.13,27.40,24.64,36.50,0.04,-272.75,-272.75,-40,556,-944,21.9,1.2,-34.6,21.9,1.3,-34.2,5.73,2.39,-31.2,26.9
2012-12-27 00:44:00,0.0,1.9156,0.0010,-1.00,0.00,-1.0,0.0,138.13,27.40,24.64,36.50,0.04,-272.75,-272.75,-39,556,-944,21.9,1.3,-34.4,21.9,1.3,-34.2,5.73,2.45,-31.3,26.9
2012-12-27 00:45:00,0.0,1.9159,0.0009,-1.00,0.00,-0.9,1.0,138.13,27.40,24.64,36.50,0.04,-272.74,-272.75,-40,556,-944,21.9,1.3,-34.4,21.9,1.3,-33.9,5.73,2.52,-31.3,26.9
2012-12-27 00:46:00,0.0,1.9158,0.0008,-1.00,0.00,-1.0,0.0,138.13,27.40,24.64,36.50,0.04,-272.74,-272.74,-40,556,-944,21.9,1.3,-34.4,21.9,1.3,-33.9,5.73,2.48,-31.3,26.9
2012-12-27 00:47:00,0.0,1.9158,0.0009,-1.00,0.00,-1.0,0.0,138.13,27.40,24.64,36.51,0.04,-272.75,-272.75,-39,556,-944,21.9,1.3,-34.4,21.9,1.3,-33.9,5.73,2.40,-31.3,26.9
2012-12-27 00:48:00,0.0,1.9160,0.0009,-1.00,0.00,-1.0,0.0,138.13,27.40,24.64,36.51,0.04,-272.75,-272.75,-39,556,-944,21.9,1.3,-34.4,21.9,1.3,-34.0,5.73,2.41,-31.3,26.9
2012-12-27 00:49:00,0.0,1.9160,0.0009,-1.00,0.00,-1.0,0.0,138.13,27.40,24.64,36.50,0.04,-272.74,-272.73,-40,556,-944,21.9,1.3,-34.4,21.9,1.3,-34.0,5.73,2.50,-31.3,26.9
2012-12-27 00:50:00,0.0,1.9158,0.0008,-1.00,0.00,-1.0,0.0,138.13,27.40,24.64,36.51,0.04,-272.75,-272.75,-40,556,-944,21.9,1.3,-34.2,21.9,1.3,-34.0,5.73,2.51,-31.3,26.9
2012-12-27 00:51:00,0.0,1.9156,0.0009,-1.00,0.00,-1.0,0.0,138.13,27.40,24.64,36.50,0.04,-272.75,-272.75,-39,556,-944,21.9,1.3,-34.2,21.9,1.3,-33.9,5.73,2.44,-31.3,26.9
2012-12-27 00:52:00,0.0,1.9158,0.0009,-1.00,0.00,-1.0,0.0,138.12,27.40,24.64,36.50,0.04,-272.74,-272.74,-39,556,-944,21.9,1.3,-34.1,21.9,1.3,-33.7,5.73,2.39,-31.3,26.9
2012-12-27 00:53:00,0.0,1.9157,0.0008,-1.00,0.00,-1.0,0.0,138.13,27.39,24.64,36.50,0.04,-272.74,-272.75,-40,556,-944,21.8,1.3,-34.2,21.9,1.3,-33.8,5.73,2.44,-31.3,26.9
2012-12-27 00:54:00,0.0,1.9161,0.0010,-1.00,0.00,-1.0,0.0,138.13,27.39,24.63,36.51,0.04,-272.75,-272.75,-40,556,-944,21.9,1.3,-34.1,21.9,1.3,-33.8,5.73,2.51,-31.3,26.9
2012-12-27 00:55:00,0.0,1.9159,0.0007,-1.00,0.00,-1.0,0.0,138.13,27.39,24.64,36.50,0.04,-272.75,-272.74,-39,556,-944,21.9,1.3,-34.2,21.9,1.3,-33.7,5.73,2.49,-31.3,26.9
2012-12-27 00:56:00,0.0,1.9158,0.0009,-1.00,0.00,-1.0,0.0,138.13,27.39,24.64,36.50,0.04,-272.73,-272.74,-40,556,-944,21.9,1.3,-34.2,21.9,1.3,-33.7,5.73,2.40,-31.3,26.9
2012-12-27 00:57:00,0.0,1.9157,0.0008,-1.00,0.00,-1.0,0.0,138.13,27.39,24.64,36.50,0.04,-272.74,-272.75,-40,556,-944,21.8,1.3,-34.2,21.9,1.3,-33.8,5.73,2.40,-31.3,26.9
2012-12-27 00:58:00,0.0,1.9157,0.0009,-1.00,0.00,-1.0,0.0,138.13,27.39,24.64,36.51,0.04,-272.75,-272.75,-39,556,-944,21.9,1.3,-34.0,21.9,1.3,-33.7,5.73,2.48,-31.3,26.9
2012-12-27 00:59:00,0.0,1.9155,0.0008,-1.00,0.00,-1.0,0.0,138.13,27.39,24.64,36.51,0.04,-272.74,-272.74,-39,556,-944,21.9,1.3,-33.9,21.9,1.3,-33.7,5.73,2.52,-31.3,26.9
2012-12-27 01:00:00,0.0,1.9155,0.0011,-1.00,0.00,-1.0,0.0,138.13,27.39,24.64,36.50,0.04,-272.74,-272.75,-40,556,-944,21.8,1.3,-34.0,21.9,1.3,-33.8,5.73,2.45,-31.3,26.9
2012-12-27 01:01:00,0.0,1.9156,0.0009,-1.00,0.00,-1.0,0.0,138.13,27.39,24.64,36.50,0.04,-272.75,-272.75,-40,556,-944,21.9,1.3,-34.1,21.9,1.3,-33.8,5.73,2.39,-31.3,26.9
2012-12-27 01:02:00,0.0,1.9156,0.0009,-1.00,0.00,-1.0,0.0,138.13,27.39,24.64,36.50,0.04,-272.74,-272.75,-39,556,-944,21.8,1.3,-34.4,21.9,1.3,-34.0,5.73,2.43,-31.3,26.9
2012-12-27 01:03:00,0.0,1.9157,0.0009,-1.00,0.00,-1.0,0.0,138.13,27.39,24.64,36.50,0.04,-272.75,-272.74,-39,556,-944,21.8,1.2,-34.6,21.9,1.3,-34.2,5.73,2.50,-31.3,26.9
2012-12-27 01:04:00,0.0,1.9159,0.0008,-1.00,0.00,-1.0,0.0,138.13,27.39,24.64,36.50,0.04,-272.75,-272.74,-40,556,-944,21.9,1.2,-34.6,21.9,1.3,-34.1,5.73,2.50,-31.3,26.9
2012-12-27 01:05:00,0.0,1.9159,0.0008,-1.00,0.00,-1.0,0.0,138.13,27.39,24.64,36.50,0.04,-272.75,-272.75,-40,556,-944,21.8,1.2,-34.7,21.9,1.3,-34.2,5.73,2.42,-31.3,26.9
2012-12-27 01:06:00,0.0,1.9157,0.0009,-1.00,0.00,-1.0,0.0,138.13,27.39,24.64,36.50,0.04,-272.74,-272.74,-39,556,-944,21.8,1.2,-34.6,21.9,1.3,-34.2,5.73,2.39,-31.3,26.8
2012-12-27 01:07:00,0.0,1.9158,0.0008,-1.00,0.00,-1.0,0.0,138.13,27.39,24.64,36.50,0.04,-272.74,-272.75,-40,556,-944,21.8,1.2,-34.7,21.9,1.3,-34.2,5.73,2.46,-31.3,26.8
2012-12-27 01:08:00,0.0,1.9161,0.0008,-1.00,0.00,-1.0,0.0,138.13,27.39,24.64,36.51,0.04,-272.75,-272.75,-40,556,-944,21.9,1.2,-34.6,21.9,1.3,-34.1,5.73,2.51,-31.3,26.9
2012-12-27 01:09:00,0.0,1.9161,0.0010,-1.00,0.00,-1.0,0.0,138.13,27.39,24.64,36.51,0.04,-272.75,-272.75,-39,556,-944,21.8,1.2,-34.6,21.9,1.3,-34.2,5.73,2.47,-31.3,26.8
2012-12-27 01:10:00,0.0,1.9167,0.0009,-1.00,0.00,-1.0,0.0,138.13,27.39,24.64,36.51,0.04,-272.75,-272.74,-39,556,-944,21.8,1.2,-34.6,21.9,1.3,-34.2,5.73,2.40,-31.3,26.9
2012-12-27 01:11:00,0.0,1.9162,0.0009,-1.00,0.00,-1.0,0.0,138.13,27.39,24.63,36.50,0.04,-272.74,-272.75,-40,556,-944,21.9,1.2,-34.6,21.9,1.3,-34.3,5.73,2.41,-31.3,26.9
2012-12-27 01:12:00,0.0,1.9156,0.0011,-1.00,0.00,-1.0,0.0,138.13,27.39,24.64,36.51,0.04,-272.74,-272.75,-40,556,-944,21.9,1.2,-34.7,21.9,1.3,-34.4,5.73,2.49,-31.4,26.9
2012-12-27 01:13:00,0.0,1.9162,0.0008,-1.00,0.00,-0.7,2.5,138.13,27.38,24.64,36.50,0.04,-272.73,-272.74,-39,556,-944,21.9,1.2,-34.7,21.9,1.3,-34.4,5.73,2.51,-31.3,26.9
2012-12-27 01:14:00,0.0,1.9162,0.0009,-1.00,0.00,-1.0,0.0,138.13,27.38,24.64,36.50,0.04,-272.75,-272.74,-40,556,-944,21.9,1.2,-34.6,21.9,1.2,-34.4,5.73,2.45,-31.3,26.9
2012-12-27 01:15:00,0.0,1.9173,0.0008,-1.00,0.00,-1.0,0.0,138.13,27.38,24.64,36.50,0.04,-272.75,-272.75,-40,556,-944,21.9,1.2,-34.8,21.9,1.3,-34.4,5.73,2.39,-31.3,26.9
2012-12-27 01:16:00,0.0,1.9172,0.0010,-1.00,0.00,-1.0,0.0,138.13,27.38,24.63,36.50,0.04,-272.75,-272.75,-40,556,-944,21.9,1.2,-34.9,21.9,1.3,-34.4,5.73,2.44,-31.3,26.9
2012-12-27 01:17:00,0.0,1.9170,0.0007,-1.00,0.00,-1.0,0.0,138.13,27.38,24.64,36.50,0.04,-272.75,-272.74,-39,556,-944,21.9,1.2,-34.8,21.9,1.3,-34.4,5.73,2.51,-31.4,26.9
2012-12-27 01:18:00,0.0,1.9174,0.0009,-1.00,0.00,-1.0,0.0,138.13,27.38,24.64,36.50,0.04,-272.74,-272.75,-40,556,-944,21.9,1.2,-34.8,21.9,1.2,-34.6,5.73,2.49,-31.3,26.9
2012-12-27 01:19:00,0.0,1.9173,0.0010,-1.00,0.00,-1.0,0.0,138.13,27.38,24.64,36.49,0.04,-272.74,-272.74,-40,556,-944,21.9,1.2,-35.0,21.9,1.2,-34.6,5.73,2.42,-31.4,26.9
2012-12-27 01:20:00,0.0,1.9176,0.0009,-1.00,0.00,-1.0,0.0,138.13,27.38,24.64,36.50,0.04,-272.75,-272.75,-39,556,-944,21.9,1.2,-35.1,21.9,1.2,-34.6,5.73,2.39,-31.4,26.9
2012-12-27 01:21:00,0.0,1.9178,0.0010,-1.00,0.00,-1.0,0.0,138.13,27.39,24.64,36.50,0.04,-272.74,-272.75,-39,556,-944,21.9,1.2,-35.0,21.9,1.2,-34.6,5.73,2.47,-31.3,26.9
2012-12-27 01:22:00,0.0,1.9177,0.0010,-1.00,0.00,-1.0,0.0,138.13,27.39,24.64,36.50,0.04,-272.75,-272.74,-40,556,-944,21.9,1.2,-35.1,21.9,1.2,-34.6,5.73,2.52,-31.4,26.9
2012-12-27 01:23:00,0.0,1.9175,0.0008,-1.00,0.00,-1.0,0.0,138.13,27.39,24.64,36.50,0.04,-272.75,-272.75,-40,556,-944,21.9,1.2,-35.0,21.9,1.2,-34.6,5.73,2.47,-31.4,26.8
2012-12-27 01:24:00,0.0,1.9180,0.0010,-1.00,0.00,-1.0,0.0,138.13,27.39,24.63,36.51,0.04,-272.74,-272.75,-39,556,-944,21.9,1.2,-35.1,21.9,1.2,-34.6,5.73,2.40,-31.4,26.8
2012-12-27 01:25:00,0.0,1.9172,0.0010,-1.00,0.00,-1.0,0.0,138.13,27.38,24.64,36.50,0.04,-272.75,-272.75,-39,556,-944,21.9,1.2,-35.0,21.9,1.2,-34.6,5.73,2.41,-31.4,26.9
2012-12-27 01:26:00,0.0,1.9176,0.0010,-1.00,0.00,-1.0,0.0,138.13,27.38,24.64,36.50,0.04,-272.75,-272.74,-40,556,-944,21.9,1.2,-35.1,21.9,1.2,-34.7,5.73,2.49,-31.4,26.9
2012-12-27 01:27:00,0.0,1.9177,0.0010,-1.00,0.00,-1.0,0.0,138.13,27.38,24.64,36.51,0.04,-272.75,-272.75,-40,556,-944,21.9,1.2,-35.1,21.9,1.2,-34.6,5.73,2.51,-31.4,26.9
2012-12-27 01:28:00,0.0,1.9175,0.0008,-1.00,0.00,-1.0,0.0,138.13,27.38,24.64,36.50,0.04,-272.75,-272.75,-39,556,-944,21.9,1.2,-34.8,21.9,1.2,-34.5,5.73,2.44,-31.4,26.9
2012-12-27 01:29:00,0.0,1.9173,0.0008,-1.00,0.00,-1.0,0.0,138.13,27.38,24.64,36.51,0.04,-272.74,-272.75,-40,556,-944,21.9,1.2,-34.8,21.9,1.3,-34.4,5.73,2.39,-31.4,26.8
2012-12-27 01:30:00,0.0,1.9174,0.0007,-1.00,0.00,-1.0,0.0,138.13,27.38,24.64,36.50,0.04,-272.75,-272.75,-40,556,-944,21.9,1.2,-34.7,21.9,1.2,-34.4,5.73,2.44,-31.4,26.8
2012-12-27 01:31:00,0.0,1.9169,0.0009,-1.00,0.00,-1.0,0.0,138.13,27.38,24.64,36.51,0.04,-272.74,-272.75,-39,556,-944,21.9,1.2,-34.6,21.9,1.3,-34.4,5.73,2.52,-31.4,26.9
2012-12-27 01:32:00,0.0,1.9162,0.0007,-1.00,0.00,-1.0,0.0,138.13,27.38,24.64,36.50,0.04,-272.74,-272.75,-39,556,-944,21.9,1.2,-34.6,21.9,1.3,-34.4,5.73,2.49,-31.3,26.9
2012-12-27 01:33:00,0.0,1.9165,0.0008,-1.00,0.00,-1.0,0.0,138.13,27.38,24.64,36.50,0.04,-272.75,-272.75,-40,556,-944,21.9,1.2,-34.7,21.9,1.3,-34.3,5.73,2.41,-31.4,26.9
2012-12-27 01:34:00,0.0,1.9164,0.0008,-1.00,0.00,-1.0,0.0,138.13,27.38,24.64,36.50,0.04,-272.75,-272.75,-40,556,-944,21.9,1.2,-34.6,21.9,1.3,-34.2,5.73,2.40,-31.4,26.9
2012-12-27 01:35:00,0.0,1.9166,0.0010,-1.00,0.00,-1.0,0.0,138.13,27.38,24.64,36.50,0.04,-272.74,-272.74,-39,556,-944,21.9,1.2,-34.6,21.9,1.3,-34.2,5.73,2.47,-31.4,26.8
2012-12-27 01:36:00,0.0,1.9167,0.0009,-1.00,0.00,-1.0,0.0,138.13,27.37,24.64,36.50,0.04,-272.74,-272.75,-39,556,-944,21.9,1.2,-34.7,21.9,1.3,-34.1,5.73,2.52,-31.4,26.8
2012-12-27 01:37:00,0.0,1.9168,0.0011,-1.00,0.00,-1.0,0.0,138.13,27.37,24.64,36.50,0.04,-272.75,-272.75,-40,556,-944,21.9,1.2,-34.6,21.9,1.3,-34.2,5.73,2.46,-31.4,26.9
2012-12-27 01:38:00,0.0,1.9169,0.0011,-1.00,0.00,-1.0,0.0,138.13,27.37,24.64,36.50,0.04,-272.74,-272.75,-40,556,-944,21.9,1.2,-34.6,21.9,1.3,-34.2,5.73,2.39,-31.4,26.9
2012-12-27 01:39:00,0.0,1.9164,0.0009,-1.00,0.00,-1.0,0.0,138.13,27.37,24.64,36.50,0.04,-272.74,-272.75,-39,556,-944,21.9,1.2,-34.6,21.9,1.3,-34.2,5.73,2.42,-31.5,26.9
2012-12-27 01:40:00,0.0,1.9162,0.0009,-1.00,0.00,-1.0,0.0,138.13,27.37,24.64,36.51,0.04,-272.74,-272.74,-40,556,-944,21.9,1.2,-34.7,21.9,1.3,-34.2,5.73,2.50,-31.5,26.9
2012-12-27 01:41:00,0.0,1.9165,0.0010,-1.00,0.00,-1.0,0.0,138.13,27.37,24.64,36.50,0.04,-272.75,-272.75,-40,556,-944,21.9,1.2,-34.6,21.9,1.3,-34.2,5.73,2.51,-31.5,26.9
2012-12-27 01:42:00,0.0,1.9168,0.0009,-1.00,0.00,-1.0,0.0,138.13,27.37,24.64,36.51,0.04,-272.74,-272.75,-39,556,-944,21.9,1.2,-34.6,21.9,1.3,-34.2,5.73,2.43,-31.5,26.9
2012-12-27 01:43:00,0.0,1.9159,0.0009,-1.00,0.00,-1.0,0.0,138.13,27.37,24.64,36.51,0.04,-272.74,-272.74,-39,556,-944,21.9,1.2,-34.7,21.9,1.3,-34.4,5.73,2.39,-31.5,26.9
2012-12-27 01:44:00,0.0,1.9161,0.0010,-1.00,0.00,-1.0,0.0,138.13,27.37,24.64,36.50,0.04,-272.75,-272.74,-40,556,-944,21.9,1.2,-34.6,21.9,1.3,-34.4,5.73,2.46,-31.5,26.9
2012-12-27 01:45:00,0.0,1.9157,0.0008,-1.00,0.00,-1.0,0.0,138.13,27.37,24.64,36.50,0.04,-272.74,-272.75,-40,556,-944,21.9,1.2,-34.6,21.9,1.3,-34.3,5.73,2.52,-31.5,26.9
2012-12-27 01:46:00,0.0,1.9163,0.0008,-1.00,0.00,-1.0,0.0,138.13,27.37,24.64,36.50,0.04,-272.75,-272.75,-39,556,-944,21.9,1.2,-34.6,21.9,1.3,-34.4,5.73,2.48,-31.5,26.9
2012-12-27 01:47:00,0.0,1.9164,0.0008,-1.00,0.00,-1.0,0.0,138.13,27.37,24.64,36.51,0.04,-272.74,-272.75,-39,556,-944,21.9,1.2,-34.6,21.9,1.3,-34.4,5.73,2.41,-31.5,26.9
2012-12-27 01:48:00,0.0,1.9160,0.0009,-1.00,0.00,-1.0,0.0,138.13,27.37,24.64,36.50,0.04,-272.75,-272.75,-40,556,-944,21.9,1.2,-34.6,21.9,1.3,-34.3,5.73,2.40,-31.5,26.9
2012-12-27 01:49:00,0.0,1.9158,0.0009,-1.00,0.00,-0.8,1.8,138.13,27.37,24.64,36.51,0.04,-272.74,-272.75,-40,556,-944,21.9,1.2,-34.7,21.9,1.3,-34.4,5.73,2.48,-31.5,26.8
2012-12-27 01:50:00,0.0,1.9164,0.0009,-1.00,0.00,-0.8,1.8,138.13,27.37,24.64,36.50,0.04,-272.74,-272.75,-39,556,-944,21.9,1.2,-34.7,21.9,1.3,-34.4,5.73,2.51,-31.5,26.9
2012-12-27 01:51:00,0.0,1.9158,0.0010,-1.00,0.00,-1.0,0.0,138.13,27.37,24.64,36.50,0.04,-272.75,-272.75,-40,556,-944,21.9,1.2,-34.8,21.9,1.3,-34.4,5.73,2.46,-31.5,26.9
2012-12-27 01:52:00,0.0,1.9154,0.0008,-1.00,0.00,-1.0,0.0,138.13,27.37,24.64,36.50,0.04,-272.75,-272.75,-40,556,-944,21.9,1.2,-34.8,21.9,1.3,-34.4,5.73,2.39,-31.5,26.9
2012-12-27 01:53:00,0.0,1.9155,0.0008,-1.00,0.00,-1.0,0.0,138.13,27.37,24.64,36.50,0.04,-272.74,-272.75,-39,556,-944,21.8,1.2,-34.9,21.9,1.3,-34.4,5.73,2.43,-31.5,26.9
2012-12-27 01:54:00,0.0,1.9159,0.0008,-1.00,0.00,-1.0,0.0,138.13,27.37,24.63,36.50,0.04,-272.74,-272.75,-39,556,-944,21.8,1.2,-34.9,21.9,1.3,-34.4,5.73,2.51,-31.5,26.9
2012-12-27 01:55:00,0.0,1.9161,0.0008,-1.00,0.00,-1.0,0.0,138.13,27.36,24.63,36.50,0.04,-272.75,-272.75,-40,556,-944,21.9,1.2,-34.8,21.9,1.3,-34.4,5.73,2.49,-31.5,26.8
2012-12-27 01:56:00,0.0,1.9158,0.0008,-1.00,0.00,-1.0,0.0,138.13,27.36,24.64,36.50,0.04,-272.74,-272.74,-40,556,-944,21.9,1.2,-34.8,21.9,1.3,-34.3,5.73,2.41,-31.5,26.9
2012-12-27 01:57:00,0.0,1.9158,0.0009,-1.00,0.00,-1.0,0.0,138.13,27.36,24.64,36.50,0.04,-272.75,-272.74,-39,556,-944,21.8,1.2,-34.9,21.9,1.3,-34.4,5.73,2.40,-31.5,26.8
2012-12-27 01:58:00,0.0,1.9159,0.0009,-1.00,0.00,-1.0,0.0,138.13,27.37,24.64,36.51,0.04,-272.74,-272.74,-39,556,-944,21.8,1.2,-34.8,21.9,1.3,-34.4,5.73,2.48,-31.5,26.9
2012-12-27 01:59:00,0.0,1.9161,0.0009,-1.00,0.00,-1.0,0.0,138.13,27.37,24.64,36.50,0.04,-272.75,-272.75,-40,556,-944,21.8,1.2,-34.8,21.9,1.3,-34.4,5.73,2.52,-31.5,26.9
2012-12-27 02:00:00,0.0,1.9162,0.0010,-1.00,0.00,-1.0,0.0,138.13,27.37,24.64,36.50,0.04,-272.75,-272.74,-39,556,-944,21.8,1.2,-34.9,21.9,1.3,-34.4,5.73,2.45,-31.5,26.9
2012-12-27 02:01:00,0.0,1.9158,0.0008,-1.00,0.00,-1.0,0.0,138.13,27.37,24.64,36.50,0.04,-272.75,-272.75,-39,556,-944,21.8,1.2,-34.9,21.9,1.3,-34.4,5.73,2.39,-31.5,26.9
2012-12-27 02:02:00,0.0,1.9160,0.0009,-1.00,0.00,-1.0,0.0,138.13,27.37,24.64,36.50,0.04,-272.75,-272.75,-40,556,-944,21.8,1.2,-34.9,21.9,1.3,-34.4,5.73,2.43,-31.5,26.8
2012-12-27 02:03:00,0.0,1.9157,0.0009,-1.00,0.00,-1.0,0.0,138.13,27.36,24.64,36.50,0.04,-272.74,-272.74,-40,556,-944,21.8,1.2,-34.8,21.9,1.3,-34.4,5.73,2.51,-31.5,26.8
2012-12-27 02:04:00,0.0,1.9159,0.0009,-1.00,0.00,-1.0,0.0,138.13,27.36,24.64,36.51,0.04,-272.74,-272.75,-39,556,-944,21.8,1.2,-34.7,21.9,1.3,-34.4,5.73,2.50,-31.5,26.9
2012-12-27 02:05:00,0.0,1.9159,0.0009,-1.00,0.00,-1.0,0.0,138.13,27.36,24.64,36.50,0.04,-272.75,-272.75,-39,556,-944,21.8,1.2,-34.6,21.9,1.3,-34.4,5.73,2.41,-31.5,26.8
2012-12-27 02:06:00,0.0,1.9162,0.0008,-1.00,0.00,-1.0,0.0,138.13,27.36,24.64,36.51,0.04,-272.74,-272.74,-40,556,-944,21.8,1.2,-34.7,21.9,1.3,-34.4,5.73,2.39,-31.6,26.8
2012-12-27 02:07:00,0.0,1.9169,0.0009,-1.00,0.00,-1.0,0.3,138.13,27.36,24.64,36.50,0.04,-272.74,-272.75,-39,556,-944,21.8,1.2,-34.7,21.9,1.3,-34.3,5.73,2.47,-31.5,26.9
2012-12-27 02:08:00,0.0,1.9163,0.0010,-1.00,0.00,-1.0,0.0,138.13,27.36,24.64,36.50,0.04,-272.75,-272.75,-39,556,-944,21.8,1.2,-34.7,21.9,1.3,-34.2,5.73,2.52,-31.6,26.9
2012-12-27 02:09:00,0.0,1.9166,0.0010,-1.00,0.00,-1.0,0.0,138.13,27.37,24.64,36.50,0.04,-272.75,-272.74,-40,556,-944,21.8,1.2,-34.5,21.9,1.3,-34.2,5.73,2.47,-31.5,26.9
2012-12-27 02:10:00,0.0,1.9165,0.0010,-1.00,0.00,-1.0,0.0,138.13,27.36,24.64,36.50,0.04,-272.74,-272.75,-40,556,-944,21.8,1.3,-34.4,21.9,1.3,-34.0,5.73,2.39,-31.5,26.8
2012-12-27 02:11:00,0.0,1.9168,0.0010,-1.00,0.00,-1.0,0.0,138.13,27.36,24.64,36.50,0.04,-272.74,-272.75,-39,556,-944,21.8,1.3,-34.4,21.9,1.3,-34.0,5.73,2.41,-31.5,26.8
2012-12-27 02:12:00,0.0,1.9165,0.0008,-1.00,0.00,-1.0,0.0,138.13,27.36,24.64,36.50,0.04,-272.75,-272.75,-39,556,-944,21.8,1.3,-34.4,21.9,1.3,-34.0,5.73,2.50,-31.6,26.8
2012-12-27 02:13:00,0.0,1.9158,0.0010,-1.00,0.00,-1.0,0.0,138.13,27.36,24.64,36.51,0.04,-272.74,-272.74,-40,556,-944,21.8,1.3,-34.5,21.9,1.3,-34.0,5.73,2.51,-31.5,26.8
2012-12-27 02:14:00,0.0,1.9165,0.0010,-1.00,0.00,-1.0,0.0,138.13,27.36,24.63,36.50,0.04,-272.74,-272.75,-40,556,-944,21.8,1.3,-34.4,21.9,1.3,-34.0,5.73,2.44,-31.5,26.8
2012-12-27 02:15:00,0.0,1.9164,0.0008,-1.00,0.00,-1.0,0.0,138.13,27.36,24.64,36.50,0.04,-272.74,-272.75,-39,556,-944,21.8,1.3,-34.4,21.9,1.3,-34.0,5.73,2.39,-31.5,26.8
2012-12-27 02:16:00,0.0,1.9161,0.0010,-1.00,0.00,-0.8,1.4,138.13,27.35,24.64,36.50,0.04,-272.74,-272.75,-39,556,-944,21.8,1.3,-34.4,21.9,1.3,-34.0,5.73,2.44,-31.6,26.8
2012-12-27 02:17:00,0.0,1.9162,0.0009,-1.00,0.00,-1.0,0.0,138.13,27.35,24.64,36.50,0.04,-272.75,-272.75,-40,555,-944,21.8,1.3,-34.3,21.9,1.3,-34.0,5.73,2.52,-31.6,26.8
2012-12-27 02:18:00,0.0,1.9163,0.0010,-1.00,0.00,-1.0,0.0,138.13,27.35,24.64,36.50,0.04,-272.75,-272.75,-39,556,-944,21.9,1.3,-34.1,21.9,1.3,-33.9,5.73,2.49,-31.6,26.8
2012-12-27 02:19:00,0.0,1.9159,0.0007,-1.00,0.00,-1.0,0.0,138.13,27.35,24.64,36.50,0.04,-272.75,-272.75,-39,556,-944,21.9,1.3,-34.2,21.9,1.3,-33.8,5.73,2.40,-31.6,26.8